Year,Month,Day,Hour,Minute,Value (Times are PST for temperature in C)
2006,08,31,00,00,12.50
2006,08,31,00,01,12.50
2006,08,31,00,02,12.40
2006,08,31,00,03,12.40
2006,08,31,00,04,12.30
2006,08,31,00,05,12.30
2006,08,31,00,06,12.20
2006,08,31,00,07,12.10
2006,08,31,00,08,12.10
2006,08,31,00,09,12.00
2006,08,31,00,10,11.90
2006,08,31,00,11,11.80
2006,08,31,00,12,11.70
2006,08,31,00,13,11.60
2006,08,31,00,14,11.60
2006,08,31,00,15,11.40
2006,08,31,00,16,11.40
2006,08,31,00,17,11.30
2006,08,31,00,18,11.20
2006,08,31,00,19,11.10
2006,08,31,00,20,11.10
2006,08,31,00,21,10.90
2006,08,31,00,22,10.90
2006,08,31,00,23,10.80
2006,08,31,00,24,10.70
2006,08,31,00,25,10.70
2006,08,31,00,26,10.60
2006,08,31,00,27,10.60
2006,08,31,00,28,10.50
2006,08,31,00,29,10.40
2006,08,31,00,30,10.40
2006,08,31,00,31,10.40
2006,08,31,00,32,10.30
2006,08,31,00,33,10.30
2006,08,31,00,34,10.20
2006,08,31,00,35,10.20
2006,08,31,00,36,10.20
2006,08,31,00,37,10.10
2006,08,31,00,38,10.10
2006,08,31,00,39,10.10
2006,08,31,00,40,10.00
2006,08,31,00,41,9.90
2006,08,31,00,42,9.90
2006,08,31,00,43,9.80
2006,08,31,00,44,9.80
2006,08,31,00,45,9.70
2006,08,31,00,46,9.70
2006,08,31,00,47,9.70
2006,08,31,00,48,9.70
2006,08,31,00,49,9.60
2006,08,31,00,50,9.60
2006,08,31,00,51,9.60
2006,08,31,00,52,9.60
2006,08,31,00,53,9.60
2006,08,31,00,54,9.50
2006,08,31,00,55,9.50
2006,08,31,00,56,9.50
2006,08,31,00,57,9.50
2006,08,31,00,58,9.50
2006,08,31,00,59,9.50
2006,08,31,01,00,9.50
2006,08,31,01,01,9.40
2006,08,31,01,02,9.40
2006,08,31,01,03,9.40
2006,08,31,01,04,9.40
2006,08,31,01,05,9.40
2006,08,31,01,06,9.40
2006,08,31,01,07,9.40
2006,08,31,01,08,9.40
2006,08,31,01,09,9.40
2006,08,31,01,10,9.40
2006,08,31,01,11,9.40
2006,08,31,01,12,9.40
2006,08,31,01,13,9.40
2006,08,31,01,14,9.30
2006,08,31,01,15,9.30
2006,08,31,01,16,9.30
2006,08,31,01,17,9.30
2006,08,31,01,18,9.20
2006,08,31,01,19,9.20
2006,08,31,01,20,9.20
2006,08,31,01,21,9.10
2006,08,31,01,22,9.10
2006,08,31,01,23,9.00
2006,08,31,01,24,9.00
2006,08,31,01,25,9.00
2006,08,31,01,26,8.90
2006,08,31,01,27,8.90
2006,08,31,01,28,8.80
2006,08,31,01,29,8.80
2006,08,31,01,30,8.70
2006,08,31,01,31,8.70
2006,08,31,01,32,8.70
2006,08,31,01,33,8.70
2006,08,31,01,34,8.70
2006,08,31,01,35,8.70
2006,08,31,01,36,8.70
2006,08,31,01,37,8.70
2006,08,31,01,38,8.70
2006,08,31,01,39,8.70
2006,08,31,01,40,8.60
2006,08,31,01,41,8.60
2006,08,31,01,42,8.60
2006,08,31,01,43,8.60
2006,08,31,01,44,8.60
2006,08,31,01,45,8.60
2006,08,31,01,46,8.60
2006,08,31,01,47,8.60
2006,08,31,01,48,8.60
2006,08,31,01,49,8.50
2006,08,31,01,50,8.50
2006,08,31,01,51,8.50
2006,08,31,01,52,8.50
2006,08,31,01,53,8.50
2006,08,31,01,54,8.50
2006,08,31,01,55,8.50
2006,08,31,01,56,8.50
2006,08,31,01,57,8.50
2006,08,31,01,58,8.50
2006,08,31,01,59,8.50
2006,08,31,02,00,8.50
2006,08,31,02,01,8.50
2006,08,31,02,02,8.40
2006,08,31,02,03,8.40
2006,08,31,02,04,8.40
2006,08,31,02,05,8.40
2006,08,31,02,06,8.40
2006,08,31,02,07,8.30
2006,08,31,02,08,8.30
2006,08,31,02,09,8.20
2006,08,31,02,10,8.20
2006,08,31,02,11,8.20
2006,08,31,02,12,8.20
2006,08,31,02,13,8.10
2006,08,31,02,14,8.10
2006,08,31,02,15,8.10
2006,08,31,02,16,8.10
2006,08,31,02,17,8.00
2006,08,31,02,18,8.00
2006,08,31,02,19,8.00
2006,08,31,02,20,8.00
2006,08,31,02,21,8.00
2006,08,31,02,22,8.00
2006,08,31,02,23,8.00
2006,08,31,02,24,8.00
2006,08,31,02,25,8.00
2006,08,31,02,26,8.00
2006,08,31,02,27,8.00
2006,08,31,02,28,8.00
2006,08,31,02,29,8.00
2006,08,31,02,30,8.00
2006,08,31,02,31,8.00
2006,08,31,02,32,8.00
2006,08,31,02,33,8.00
2006,08,31,02,34,8.00
2006,08,31,02,35,8.00
2006,08,31,02,36,8.00
2006,08,31,02,37,8.00
2006,08,31,02,38,7.90
2006,08,31,02,39,7.90
2006,08,31,02,40,7.90
2006,08,31,02,41,7.90
2006,08,31,02,42,7.90
2006,08,31,02,43,7.80
2006,08,31,02,44,7.80
2006,08,31,02,45,7.80
2006,08,31,02,46,7.80
2006,08,31,02,47,7.80
2006,08,31,02,48,7.70
2006,08,31,02,49,7.70
2006,08,31,02,50,7.70
2006,08,31,02,51,7.70
2006,08,31,02,52,7.70
2006,08,31,02,53,7.70
2006,08,31,02,54,7.70
2006,08,31,02,55,7.70
2006,08,31,02,56,7.70
2006,08,31,02,57,7.70
2006,08,31,02,58,7.70
2006,08,31,02,59,7.70
2006,08,31,03,00,7.70
2006,08,31,03,01,7.80
2006,08,31,03,02,7.80
2006,08,31,03,03,7.80
2006,08,31,03,04,7.80
2006,08,31,03,05,7.80
2006,08,31,03,06,7.80
2006,08,31,03,07,7.80
2006,08,31,03,08,7.80
2006,08,31,03,09,7.70
2006,08,31,03,10,7.70
2006,08,31,03,11,7.60
2006,08,31,03,12,7.60
2006,08,31,03,13,7.60
2006,08,31,03,14,7.60
2006,08,31,03,15,7.50
2006,08,31,03,16,7.50
2006,08,31,03,17,7.50
2006,08,31,03,18,7.40
2006,08,31,03,19,7.40
2006,08,31,03,20,7.40
2006,08,31,03,21,7.40
2006,08,31,03,22,7.40
2006,08,31,03,23,7.30
2006,08,31,03,24,7.30
2006,08,31,03,25,7.30
2006,08,31,03,26,7.30
2006,08,31,03,27,7.30
2006,08,31,03,28,7.30
2006,08,31,03,29,7.30
2006,08,31,03,30,7.30
2006,08,31,03,31,7.30
2006,08,31,03,32,7.30
2006,08,31,03,33,7.30
2006,08,31,03,34,7.20
2006,08,31,03,35,7.20
2006,08,31,03,36,7.20
2006,08,31,03,37,7.20
2006,08,31,03,38,7.10
2006,08,31,03,39,7.10
2006,08,31,03,40,7.10
2006,08,31,03,41,7.10
2006,08,31,03,42,7.10
2006,08,31,03,43,7.00
2006,08,31,03,44,7.00
2006,08,31,03,45,7.00
2006,08,31,03,46,7.00
2006,08,31,03,47,7.10
2006,08,31,03,48,7.10
2006,08,31,03,49,7.10
2006,08,31,03,50,7.10
2006,08,31,03,51,7.10
2006,08,31,03,52,7.20
2006,08,31,03,53,7.20
2006,08,31,03,54,7.20
2006,08,31,03,55,7.20
2006,08,31,03,56,7.20
2006,08,31,03,57,7.20
2006,08,31,03,58,7.20
2006,08,31,03,59,7.20
2006,08,31,04,00,7.20
2006,08,31,04,01,7.20
2006,08,31,04,02,7.20
2006,08,31,04,03,7.20
2006,08,31,04,04,7.20
2006,08,31,04,05,7.20
2006,08,31,04,06,7.20
2006,08,31,04,07,7.20
2006,08,31,04,08,7.20
2006,08,31,04,09,7.20
2006,08,31,04,10,7.20
2006,08,31,04,11,7.20
2006,08,31,04,12,7.20
2006,08,31,04,13,7.20
2006,08,31,04,14,7.20
2006,08,31,04,15,7.20
2006,08,31,04,16,7.20
2006,08,31,04,17,7.20
2006,08,31,04,18,7.20
2006,08,31,04,19,7.20
2006,08,31,04,20,7.20
2006,08,31,04,21,7.20
2006,08,31,04,22,7.20
2006,08,31,04,23,7.20
2006,08,31,04,24,7.20
2006,08,31,04,25,7.20
2006,08,31,04,26,7.10
2006,08,31,04,27,7.10
2006,08,31,04,28,7.10
2006,08,31,04,29,7.00
2006,08,31,04,30,7.00
2006,08,31,04,31,7.00
2006,08,31,04,32,6.90
2006,08,31,04,33,6.90
2006,08,31,04,34,6.90
2006,08,31,04,35,6.80
2006,08,31,04,36,6.80
2006,08,31,04,37,6.80
2006,08,31,04,38,6.80
2006,08,31,04,39,6.80
2006,08,31,04,40,6.80
2006,08,31,04,41,6.80
2006,08,31,04,42,6.80
2006,08,31,04,43,6.70
2006,08,31,04,44,6.70
2006,08,31,04,45,6.70
2006,08,31,04,46,6.70
2006,08,31,04,47,6.70
2006,08,31,04,48,6.80
2006,08,31,04,49,6.80
2006,08,31,04,50,6.80
2006,08,31,04,51,6.80
2006,08,31,04,52,6.80
2006,08,31,04,53,6.80
2006,08,31,04,54,6.80
2006,08,31,04,55,6.80
2006,08,31,04,56,6.80
2006,08,31,04,57,6.80
2006,08,31,04,58,6.70
2006,08,31,04,59,6.70
2006,08,31,05,00,6.70
2006,08,31,05,01,6.70
2006,08,31,05,02,6.70
2006,08,31,05,03,6.70
2006,08,31,05,04,6.60
2006,08,31,05,05,6.60
2006,08,31,05,06,6.60
2006,08,31,05,07,6.60
2006,08,31,05,08,6.60
2006,08,31,05,09,6.60
2006,08,31,05,10,6.60
2006,08,31,05,11,6.60
2006,08,31,05,12,6.60
2006,08,31,05,13,6.60
2006,08,31,05,14,6.60
2006,08,31,05,15,6.50
2006,08,31,05,16,6.40
2006,08,31,05,17,6.40
2006,08,31,05,18,6.40
2006,08,31,05,19,6.40
2006,08,31,05,20,6.40
2006,08,31,05,21,6.40
2006,08,31,05,22,6.50
2006,08,31,05,23,6.60
2006,08,31,05,24,6.60
2006,08,31,05,25,6.60
2006,08,31,05,26,6.60
2006,08,31,05,27,6.60
2006,08,31,05,28,6.60
2006,08,31,05,29,6.60
2006,08,31,05,30,6.70
2006,08,31,05,31,6.70
2006,08,31,05,32,6.70
2006,08,31,05,33,6.70
2006,08,31,05,34,6.70
2006,08,31,05,35,6.70
2006,08,31,05,36,6.70
2006,08,31,05,37,6.70
2006,08,31,05,38,6.70
2006,08,31,05,39,6.70
2006,08,31,05,40,6.70
2006,08,31,05,41,6.70
2006,08,31,05,42,6.70
2006,08,31,05,43,6.70
2006,08,31,05,44,6.80
2006,08,31,05,45,6.80
2006,08,31,05,46,6.80
2006,08,31,05,47,6.80
2006,08,31,05,48,6.80
2006,08,31,05,49,6.80
2006,08,31,05,50,6.80
2006,08,31,05,51,6.80
2006,08,31,05,52,6.80
2006,08,31,05,53,6.80
2006,08,31,05,54,6.80
2006,08,31,05,55,6.80
2006,08,31,05,56,6.80
2006,08,31,05,57,6.80
2006,08,31,05,58,6.80
2006,08,31,05,59,6.80
2006,08,31,06,00,6.80
2006,08,31,06,01,6.80
2006,08,31,06,02,6.80
2006,08,31,06,03,6.80
2006,08,31,06,04,6.80
2006,08,31,06,05,6.80
2006,08,31,06,06,6.80
2006,08,31,06,07,6.80
2006,08,31,06,08,6.90
2006,08,31,06,09,6.90
2006,08,31,06,10,6.90
2006,08,31,06,11,7.00
2006,08,31,06,12,7.00
2006,08,31,06,13,7.00
2006,08,31,06,14,7.00
2006,08,31,06,15,7.10
2006,08,31,06,16,7.10
2006,08,31,06,17,7.10
2006,08,31,06,18,7.10
2006,08,31,06,19,7.10
2006,08,31,06,20,7.10
2006,08,31,06,21,7.10
2006,08,31,06,22,7.10
2006,08,31,06,23,7.10
2006,08,31,06,24,7.10
2006,08,31,06,25,7.10
2006,08,31,06,26,7.10
2006,08,31,06,27,7.10
2006,08,31,06,28,7.10
2006,08,31,06,29,7.10
2006,08,31,06,30,7.10
2006,08,31,06,31,7.00
2006,08,31,06,32,7.00
2006,08,31,06,33,6.90
2006,08,31,06,34,6.90
2006,08,31,06,35,6.80
2006,08,31,06,36,6.80
2006,08,31,06,37,6.80
2006,08,31,06,38,6.80
2006,08,31,06,39,6.80
2006,08,31,06,40,6.80
2006,08,31,06,41,6.80
2006,08,31,06,42,6.80
2006,08,31,06,43,6.80
2006,08,31,06,44,6.80
2006,08,31,06,45,6.80
2006,08,31,06,46,6.80
2006,08,31,06,47,6.80
2006,08,31,06,48,6.80
2006,08,31,06,49,6.80
2006,08,31,06,50,6.80
2006,08,31,06,51,6.90
2006,08,31,06,52,6.90
2006,08,31,06,53,6.90
2006,08,31,06,54,6.90
2006,08,31,06,55,6.90
2006,08,31,06,56,7.00
2006,08,31,06,57,7.00
2006,08,31,06,58,7.00
2006,08,31,06,59,7.00
2006,08,31,07,00,7.00
2006,08,31,07,01,7.00
2006,08,31,07,02,7.00
2006,08,31,07,03,7.10
2006,08,31,07,04,7.00
2006,08,31,07,05,7.00
2006,08,31,07,06,7.00
2006,08,31,07,07,7.00
2006,08,31,07,08,7.00
2006,08,31,07,09,7.10
2006,08,31,07,10,7.10
2006,08,31,07,11,7.10
2006,08,31,07,12,7.20
2006,08,31,07,13,7.30
2006,08,31,07,14,7.30
2006,08,31,07,15,7.30
2006,08,31,07,16,7.40
2006,08,31,07,17,7.40
2006,08,31,07,18,7.50
2006,08,31,07,19,7.50
2006,08,31,07,20,7.60
2006,08,31,07,21,7.70
2006,08,31,07,22,7.80
2006,08,31,07,23,7.80
2006,08,31,07,24,7.80
2006,08,31,07,25,7.80
2006,08,31,07,26,7.80
2006,08,31,07,27,7.90
2006,08,31,07,28,7.90
2006,08,31,07,29,8.00
2006,08,31,07,30,8.00
2006,08,31,07,31,8.00
2006,08,31,07,32,8.00
2006,08,31,07,33,8.10
2006,08,31,07,34,8.10
2006,08,31,07,35,8.20
2006,08,31,07,36,8.30
2006,08,31,07,37,8.40
2006,08,31,07,38,8.50
2006,08,31,07,39,8.70
2006,08,31,07,40,8.80
2006,08,31,07,41,8.90
2006,08,31,07,42,9.00
2006,08,31,07,43,9.20
2006,08,31,07,44,9.30
2006,08,31,07,45,9.50
2006,08,31,07,46,9.60
2006,08,31,07,47,9.60
2006,08,31,07,48,9.90
2006,08,31,07,49,10.00
2006,08,31,07,50,10.10
2006,08,31,07,51,10.30
2006,08,31,07,52,10.40
2006,08,31,07,53,10.60
2006,08,31,07,54,10.60
2006,08,31,07,55,10.70
2006,08,31,07,56,10.90
2006,08,31,07,57,10.90
2006,08,31,07,58,10.90
2006,08,31,07,59,11.00
2006,08,31,08,00,11.20
2006,08,31,08,01,11.30
2006,08,31,08,02,11.40
2006,08,31,08,03,11.60
2006,08,31,08,04,11.60
2006,08,31,08,05,11.80
2006,08,31,08,06,11.80
2006,08,31,08,07,11.90
2006,08,31,08,08,12.00
2006,08,31,08,09,12.10
2006,08,31,08,10,12.10
2006,08,31,08,11,12.20
2006,08,31,08,12,12.20
2006,08,31,08,13,12.20
2006,08,31,08,14,12.30
2006,08,31,08,15,12.40
2006,08,31,08,16,12.40
2006,08,31,08,17,12.40
2006,08,31,08,18,12.50
2006,08,31,08,19,12.50
2006,08,31,08,20,12.60
2006,08,31,08,21,12.60
2006,08,31,08,22,12.70
2006,08,31,08,23,12.70
2006,08,31,08,24,12.90
2006,08,31,08,25,13.00
2006,08,31,08,26,13.20
2006,08,31,08,27,13.30
2006,08,31,08,28,13.40
2006,08,31,08,29,13.50
2006,08,31,08,30,13.50
2006,08,31,08,31,13.60
2006,08,31,08,32,13.60
2006,08,31,08,33,13.80
2006,08,31,08,34,13.90
2006,08,31,08,35,14.00
2006,08,31,08,36,14.10
2006,08,31,08,37,14.20
2006,08,31,08,38,14.30
2006,08,31,08,39,14.50
2006,08,31,08,40,14.50
2006,08,31,08,41,14.60
2006,08,31,08,42,14.70
2006,08,31,08,43,14.80
2006,08,31,08,44,14.90
2006,08,31,08,45,14.90
2006,08,31,08,46,15.00
2006,08,31,08,47,15.00
2006,08,31,08,48,15.10
2006,08,31,08,49,15.10
2006,08,31,08,50,15.10
2006,08,31,08,51,15.10
2006,08,31,08,52,15.10
2006,08,31,08,53,15.20
2006,08,31,08,54,15.20
2006,08,31,08,55,15.30
2006,08,31,08,56,15.30
2006,08,31,08,57,15.30
2006,08,31,08,58,15.30
2006,08,31,08,59,15.30
2006,08,31,09,00,15.30
2006,08,31,09,01,15.40
2006,08,31,09,02,15.40
2006,08,31,09,03,15.40
2006,08,31,09,04,15.40
2006,08,31,09,05,15.40
2006,08,31,09,06,15.40
2006,08,31,09,07,15.40
2006,08,31,09,08,15.50
2006,08,31,09,09,15.50
2006,08,31,09,10,15.60
2006,08,31,09,11,15.60
2006,08,31,09,12,15.70
2006,08,31,09,13,15.70
2006,08,31,09,14,15.70
2006,08,31,09,15,15.70
2006,08,31,09,16,15.70
2006,08,31,09,17,15.70
2006,08,31,09,18,15.70
2006,08,31,09,19,15.70
2006,08,31,09,20,15.70
2006,08,31,09,21,15.80
2006,08,31,09,22,15.80
2006,08,31,09,23,15.90
2006,08,31,09,24,16.00
2006,08,31,09,25,16.10
2006,08,31,09,26,16.10
2006,08,31,09,27,16.10
2006,08,31,09,28,16.10
2006,08,31,09,29,16.10
2006,08,31,09,30,16.10
2006,08,31,09,31,16.10
2006,08,31,09,32,16.10
2006,08,31,09,33,16.10
2006,08,31,09,34,16.10
2006,08,31,09,35,16.10
2006,08,31,09,36,16.10
2006,08,31,09,37,16.10
2006,08,31,09,38,16.00
2006,08,31,09,39,15.90
2006,08,31,09,40,16.00
2006,08,31,09,41,16.10
2006,08,31,09,42,16.10
2006,08,31,09,43,16.00
2006,08,31,09,44,15.90
2006,08,31,09,45,15.90
2006,08,31,09,46,15.90
2006,08,31,09,47,15.90
2006,08,31,09,48,15.90
2006,08,31,09,49,15.90
2006,08,31,09,50,15.90
2006,08,31,09,51,15.90
2006,08,31,09,52,15.80
2006,08,31,09,53,15.90
2006,08,31,09,54,15.90
2006,08,31,09,55,15.90
2006,08,31,09,56,15.90
2006,08,31,09,57,16.00
2006,08,31,09,58,16.10
2006,08,31,09,59,16.20
2006,08,31,10,00,16.30
2006,08,31,10,01,16.30
2006,08,31,10,02,16.40
2006,08,31,10,03,16.30
2006,08,31,10,04,16.30
2006,08,31,10,05,16.30
2006,08,31,10,06,16.20
2006,08,31,10,07,16.20
2006,08,31,10,08,16.20
2006,08,31,10,09,16.20
2006,08,31,10,10,16.20
2006,08,31,10,11,16.30
2006,08,31,10,12,16.30
2006,08,31,10,13,16.40
2006,08,31,10,14,16.40
2006,08,31,10,15,16.40
2006,08,31,10,16,16.40
2006,08,31,10,17,16.40
2006,08,31,10,18,16.40
2006,08,31,10,19,16.50
2006,08,31,10,20,16.60
2006,08,31,10,21,16.60
2006,08,31,10,22,16.70
2006,08,31,10,23,16.70
2006,08,31,10,24,16.80
2006,08,31,10,25,16.80
2006,08,31,10,26,16.90
2006,08,31,10,27,16.90
2006,08,31,10,28,16.90
2006,08,31,10,29,16.90
2006,08,31,10,30,16.90
2006,08,31,10,31,16.80
2006,08,31,10,32,16.80
2006,08,31,10,33,16.90
2006,08,31,10,34,17.00
2006,08,31,10,35,17.00
2006,08,31,10,36,17.20
2006,08,31,10,37,17.20
2006,08,31,10,38,17.30
2006,08,31,10,39,17.30
2006,08,31,10,40,17.30
2006,08,31,10,41,17.30
2006,08,31,10,42,17.30
2006,08,31,10,43,17.30
2006,08,31,10,44,17.30
2006,08,31,10,45,17.00
2006,08,31,10,46,17.00
2006,08,31,10,47,16.90
2006,08,31,10,48,16.80
2006,08,31,10,49,16.70
2006,08,31,10,50,16.70
2006,08,31,10,51,16.70
2006,08,31,10,52,16.70
2006,08,31,10,53,16.70
2006,08,31,10,54,16.80
2006,08,31,10,55,16.90
2006,08,31,10,56,16.90
2006,08,31,10,57,16.80
2006,08,31,10,58,16.80
2006,08,31,10,59,16.90
2006,08,31,11,00,16.90
2006,08,31,11,01,17.00
2006,08,31,11,02,17.00
2006,08,31,11,03,17.10
2006,08,31,11,04,17.20
2006,08,31,11,05,17.30
2006,08,31,11,06,17.30
2006,08,31,11,07,17.30
2006,08,31,11,08,17.30
2006,08,31,11,09,17.30
2006,08,31,11,10,17.20
2006,08,31,11,11,17.10
2006,08,31,11,12,17.00
2006,08,31,11,13,16.90
2006,08,31,11,14,16.80
2006,08,31,11,15,16.70
2006,08,31,11,16,16.70
2006,08,31,11,17,16.70
2006,08,31,11,18,16.70
2006,08,31,11,19,16.70
2006,08,31,11,20,16.70
2006,08,31,11,21,16.70
2006,08,31,11,22,16.80
2006,08,31,11,23,16.90
2006,08,31,11,24,16.90
2006,08,31,11,25,16.90
2006,08,31,11,26,17.00
2006,08,31,11,27,17.00
2006,08,31,11,28,17.00
2006,08,31,11,29,17.00
2006,08,31,11,30,17.00
2006,08,31,11,31,17.00
2006,08,31,11,32,17.00
2006,08,31,11,33,16.90
2006,08,31,11,34,16.90
2006,08,31,11,35,16.90
2006,08,31,11,36,17.00
2006,08,31,11,37,17.00
2006,08,31,11,38,17.10
2006,08,31,11,39,17.10
2006,08,31,11,40,17.10
2006,08,31,11,41,17.20
2006,08,31,11,42,17.30
2006,08,31,11,43,17.30
2006,08,31,11,44,17.30
2006,08,31,11,45,17.30
2006,08,31,11,46,17.30
2006,08,31,11,47,17.20
2006,08,31,11,48,17.20
2006,08,31,11,49,17.10
2006,08,31,11,50,17.10
2006,08,31,11,51,17.20
2006,08,31,11,52,17.30
2006,08,31,11,53,17.30
2006,08,31,11,54,17.30
2006,08,31,11,55,17.30
2006,08,31,11,56,17.30
2006,08,31,11,57,17.40
2006,08,31,11,58,17.40
2006,08,31,11,59,17.50
2006,08,31,12,00,17.50
2006,08,31,12,01,17.40
2006,08,31,12,02,17.40
2006,08,31,12,03,17.30
2006,08,31,12,04,17.30
2006,08,31,12,05,17.40
2006,08,31,12,06,17.50
2006,08,31,12,07,17.60
2006,08,31,12,08,17.60
2006,08,31,12,09,17.60
2006,08,31,12,10,17.70
2006,08,31,12,11,17.80
2006,08,31,12,12,17.70
2006,08,31,12,13,17.60
2006,08,31,12,14,17.60
2006,08,31,12,15,17.60
2006,08,31,12,16,17.70
2006,08,31,12,17,17.70
2006,08,31,12,18,17.70
2006,08,31,12,19,17.60
2006,08,31,12,20,17.50
2006,08,31,12,21,17.40
2006,08,31,12,22,17.40
2006,08,31,12,23,17.40
2006,08,31,12,24,17.50
2006,08,31,12,25,17.60
2006,08,31,12,26,17.70
2006,08,31,12,27,17.70
2006,08,31,12,28,17.90
2006,08,31,12,29,17.90
2006,08,31,12,30,17.90
2006,08,31,12,31,17.90
2006,08,31,12,32,17.90
2006,08,31,12,33,17.90
2006,08,31,12,34,18.10
2006,08,31,12,35,18.20
2006,08,31,12,36,18.20
2006,08,31,12,37,18.20
2006,08,31,12,38,18.20
2006,08,31,12,39,18.20
2006,08,31,12,40,18.10
2006,08,31,12,41,18.10
2006,08,31,12,42,18.10
2006,08,31,12,43,18.10
2006,08,31,12,44,18.20
2006,08,31,12,45,18.30
2006,08,31,12,46,18.30
2006,08,31,12,47,18.20
2006,08,31,12,48,18.20
2006,08,31,12,49,18.20
2006,08,31,12,50,18.30
2006,08,31,12,51,18.40
2006,08,31,12,52,18.50
2006,08,31,12,53,18.50
2006,08,31,12,54,18.60
2006,08,31,12,55,18.60
2006,08,31,12,56,18.60
2006,08,31,12,57,18.50
2006,08,31,12,58,18.60
2006,08,31,12,59,18.60
2006,08,31,13,00,18.50
2006,08,31,13,01,18.30
2006,08,31,13,02,18.10
2006,08,31,13,03,18.10
2006,08,31,13,04,18.20
2006,08,31,13,05,18.20
2006,08,31,13,06,18.20
2006,08,31,13,07,18.20
2006,08,31,13,08,18.20
2006,08,31,13,09,18.30
2006,08,31,13,10,18.30
2006,08,31,13,11,18.30
2006,08,31,13,12,18.40
2006,08,31,13,13,18.40
2006,08,31,13,14,18.50
2006,08,31,13,15,18.50
2006,08,31,13,16,18.70
2006,08,31,13,17,18.80
2006,08,31,13,18,18.90
2006,08,31,13,19,18.90
2006,08,31,13,20,18.90
2006,08,31,13,21,18.70
2006,08,31,13,22,18.60
2006,08,31,13,23,18.50
2006,08,31,13,24,18.50
2006,08,31,13,25,18.50
2006,08,31,13,26,18.60
2006,08,31,13,27,18.60
2006,08,31,13,28,18.50
2006,08,31,13,29,18.50
2006,08,31,13,30,18.50
2006,08,31,13,31,18.50
2006,08,31,13,32,18.60
2006,08,31,13,33,18.60
2006,08,31,13,34,18.70
2006,08,31,13,35,18.80
2006,08,31,13,36,18.80
2006,08,31,13,37,18.80
2006,08,31,13,38,18.80
2006,08,31,13,39,18.70
2006,08,31,13,40,18.60
2006,08,31,13,41,18.60
2006,08,31,13,42,18.60
2006,08,31,13,43,18.60
2006,08,31,13,44,18.70
2006,08,31,13,45,18.70
2006,08,31,13,46,18.80
2006,08,31,13,47,18.90
2006,08,31,13,48,18.90
2006,08,31,13,49,18.90
2006,08,31,13,50,18.90
2006,08,31,13,51,18.90
2006,08,31,13,52,18.90
2006,08,31,13,53,18.90
2006,08,31,13,54,18.90
2006,08,31,13,55,18.90
2006,08,31,13,56,18.90
2006,08,31,13,57,18.90
2006,08,31,13,58,18.90
2006,08,31,13,59,19.00
2006,08,31,14,00,19.10
2006,08,31,14,01,19.10
2006,08,31,14,02,19.30
2006,08,31,14,03,19.30
2006,08,31,14,04,19.30
2006,08,31,14,05,19.20
2006,08,31,14,06,19.20
2006,08,31,14,07,19.10
2006,08,31,14,08,19.20
2006,08,31,14,09,19.30
2006,08,31,14,10,19.30
2006,08,31,14,11,19.30
2006,08,31,14,12,19.40
2006,08,31,14,13,19.50
2006,08,31,14,14,19.40
2006,08,31,14,15,19.30
2006,08,31,14,16,19.30
2006,08,31,14,17,19.30
2006,08,31,14,18,19.40
2006,08,31,14,19,19.40
2006,08,31,14,20,19.40
2006,08,31,14,21,19.50
2006,08,31,14,22,19.50
2006,08,31,14,23,19.50
2006,08,31,14,24,19.60
2006,08,31,14,25,19.70
2006,08,31,14,26,19.80
2006,08,31,14,27,19.70
2006,08,31,14,28,19.70
2006,08,31,14,29,19.70
2006,08,31,14,30,19.70
2006,08,31,14,31,19.60
2006,08,31,14,32,19.50
2006,08,31,14,33,19.40
2006,08,31,14,34,19.30
2006,08,31,14,35,19.30
2006,08,31,14,36,19.20
2006,08,31,14,37,19.20
2006,08,31,14,38,19.30
2006,08,31,14,39,19.40
2006,08,31,14,40,19.40
2006,08,31,14,41,19.40
2006,08,31,14,42,19.50
2006,08,31,14,43,19.50
2006,08,31,14,44,19.40
2006,08,31,14,45,19.50
2006,08,31,14,46,19.50
2006,08,31,14,47,19.40
2006,08,31,14,48,19.40
2006,08,31,14,49,19.40
2006,08,31,14,50,19.40
2006,08,31,14,51,19.40
2006,08,31,14,52,19.30
2006,08,31,14,53,19.30
2006,08,31,14,54,19.30
2006,08,31,14,55,19.30
2006,08,31,14,56,19.30
2006,08,31,14,57,19.40
2006,08,31,14,58,19.40
2006,08,31,14,59,19.40
2006,08,31,15,00,19.50
2006,08,31,15,01,19.50
2006,08,31,15,02,19.50
2006,08,31,15,03,19.50
2006,08,31,15,04,19.50
2006,08,31,15,05,19.60
2006,08,31,15,06,19.70
2006,08,31,15,07,19.70
2006,08,31,15,08,19.70
2006,08,31,15,09,19.80
2006,08,31,15,10,19.80
2006,08,31,15,11,19.80
2006,08,31,15,12,19.80
2006,08,31,15,13,19.80
2006,08,31,15,14,19.70
2006,08,31,15,15,19.70
2006,08,31,15,16,19.80
2006,08,31,15,17,19.90
2006,08,31,15,18,19.90
2006,08,31,15,19,20.00
2006,08,31,15,20,20.10
2006,08,31,15,21,20.20
2006,08,31,15,22,20.20
2006,08,31,15,23,20.40
2006,08,31,15,24,20.40
2006,08,31,15,25,20.50
2006,08,31,15,26,20.40
2006,08,31,15,27,20.20
2006,08,31,15,28,20.00
2006,08,31,15,29,19.90
2006,08,31,15,30,19.90
2006,08,31,15,31,19.80
2006,08,31,15,32,19.80
2006,08,31,15,33,19.80
2006,08,31,15,34,19.90
2006,08,31,15,35,19.90
2006,08,31,15,36,20.00
2006,08,31,15,37,20.20
2006,08,31,15,38,20.20
2006,08,31,15,39,20.20
2006,08,31,15,40,20.20
2006,08,31,15,41,20.20
2006,08,31,15,42,20.20
2006,08,31,15,43,20.20
2006,08,31,15,44,20.30
2006,08,31,15,45,20.30
2006,08,31,15,46,20.30
2006,08,31,15,47,20.30
2006,08,31,15,48,20.40
2006,08,31,15,49,20.50
2006,08,31,15,50,20.50
2006,08,31,15,51,20.50
2006,08,31,15,52,20.60
2006,08,31,15,53,20.70
2006,08,31,15,54,20.70
2006,08,31,15,55,20.70
2006,08,31,15,56,20.60
2006,08,31,15,57,20.50
2006,08,31,15,58,20.50
2006,08,31,15,59,20.50
2006,08,31,16,00,20.50
2006,08,31,16,01,20.50
2006,08,31,16,02,20.50
2006,08,31,16,03,20.60
2006,08,31,16,04,20.60
2006,08,31,16,05,20.70
2006,08,31,16,06,20.70
2006,08,31,16,07,20.80
2006,08,31,16,08,20.90
2006,08,31,16,09,20.90
2006,08,31,16,10,20.90
2006,08,31,16,11,21.00
2006,08,31,16,12,21.00
2006,08,31,16,13,21.00
2006,08,31,16,14,21.00
2006,08,31,16,15,20.90
2006,08,31,16,16,20.90
2006,08,31,16,17,20.90
2006,08,31,16,18,20.90
2006,08,31,16,19,20.90
2006,08,31,16,20,20.90
2006,08,31,16,21,20.80
2006,08,31,16,22,20.80
2006,08,31,16,23,20.70
2006,08,31,16,24,20.70
2006,08,31,16,25,20.80
2006,08,31,16,26,20.80
2006,08,31,16,27,20.90
2006,08,31,16,28,20.90
2006,08,31,16,29,20.90
2006,08,31,16,30,20.90
2006,08,31,16,31,20.90
2006,08,31,16,32,20.80
2006,08,31,16,33,20.80
2006,08,31,16,34,20.80
2006,08,31,16,35,20.70
2006,08,31,16,36,20.80
2006,08,31,16,37,20.80
2006,08,31,16,38,20.80
2006,08,31,16,39,20.80
2006,08,31,16,40,20.80
2006,08,31,16,41,20.70
2006,08,31,16,42,20.70
2006,08,31,16,43,20.60
2006,08,31,16,44,20.50
2006,08,31,16,45,20.50
2006,08,31,16,46,20.50
2006,08,31,16,47,20.60
2006,08,31,16,48,20.60
2006,08,31,16,49,20.60
2006,08,31,16,50,20.60
2006,08,31,16,51,20.70
2006,08,31,16,52,20.70
2006,08,31,16,53,20.70
2006,08,31,16,54,20.70
2006,08,31,16,55,20.70
2006,08,31,16,56,20.70
2006,08,31,16,57,20.80
2006,08,31,16,58,20.80
2006,08,31,16,59,20.80
2006,08,31,17,00,20.80
2006,08,31,17,01,20.90
2006,08,31,17,02,20.90
2006,08,31,17,03,20.80
2006,08,31,17,04,20.80
2006,08,31,17,05,20.90
2006,08,31,17,06,20.90
2006,08,31,17,07,21.00
2006,08,31,17,08,21.00
2006,08,31,17,09,21.00
2006,08,31,17,10,21.10
2006,08,31,17,11,21.00
2006,08,31,17,12,21.00
2006,08,31,17,13,21.00
2006,08,31,17,14,20.90
2006,08,31,17,15,20.90
2006,08,31,17,16,20.90
2006,08,31,17,17,20.90
2006,08,31,17,18,20.90
2006,08,31,17,19,20.80
2006,08,31,17,20,20.80
2006,08,31,17,21,20.70
2006,08,31,17,22,20.70
2006,08,31,17,23,20.70
2006,08,31,17,24,20.70
2006,08,31,17,25,20.70
2006,08,31,17,26,20.80
2006,08,31,17,27,20.80
2006,08,31,17,28,20.80
2006,08,31,17,29,20.70
2006,08,31,17,30,20.60
2006,08,31,17,31,20.60
2006,08,31,17,32,20.50
2006,08,31,17,33,20.50
2006,08,31,17,34,20.50
2006,08,31,17,35,20.60
2006,08,31,17,36,20.70
2006,08,31,17,37,20.70
2006,08,31,17,38,20.80